GW1255 Weather Reports


Display with metric or nautical units.
time (UTC)temp
F
wind
direction
speed
MPH
gust
MPH
rain 1hr
in
rain 24hr
in
rain mn
in
humidity
%
barometer
mb
20260510152703 54 39 7.0 11.0 0.00 0.00 0.00 60 1016.8
20260510151803 54 61 7.0 12.0 0.00 0.00 0.00 59 1016.7
20260510150903 55 42 7.0 14.0 0.00 0.00 0.00 60 1016.9
20260510150004 54 64 8.0 15.0 0.00 0.00 0.00 61 1017.1
20260510145403 54 51 5.0 11.0 0.00 0.00 0.00 62 1017.2
20260510144718 54 61 8.0 13.0 0.00 0.00 0.00 63 1017.3
20260510143603 54 90 8.0 17.0 0.00 0.00 0.00 63 1017.3
20260510142703 55 66 6.0 11.0 0.00 0.00 0.00 62 1017.4
20260510141803 54 44 8.0 15.0 0.00 0.00 0.00 63 1017.7
20260510140903 54 58 7.0 11.0 0.00 0.00 0.00 66 1017.7
20260510140003 53 92 8.0 14.0 0.00 0.00 0.00 67 1017.8
20260510135617 53 86 9.0 14.0 0.00 0.00 0.00 67 1017.7
20260510134503 52 79 9.0 15.0 0.00 0.00 0.00 67 1017.7
20260510133603 52 79 7.0 13.0 0.00 0.00 0.00 68 1017.8
20260510132703 52 47 8.0 13.0 0.00 0.00 0.00 70 1017.9
20260510131803 52 43 7.0 14.0 0.00 0.00 0.00 70 1017.8
20260510131117 52 43 9.0 15.0 0.00 0.00 0.00 70 1018.0
20260510130003 52 64 8.0 15.0 0.00 0.00 0.00 71 1018.1
20260510125403 52 69 10.0 15.0 0.00 0.00 0.00 70 1018.0
20260510124503 51 57 9.0 13.0 0.00 0.00 0.00 72 1018.2
20260510123603 51 34 9.0 13.0 0.00 0.00 0.00 72 1018.2
20260510122703 51 51 9.0 15.0 0.00 0.00 0.00 73 1018.3
20260510121803 51 60 9.0 14.0 0.00 0.00 0.00 74 1018.4
20260510120903 50 28 9.0 13.0 0.00 0.00 0.00 74 1018.4
20260510120003 50 45 9.0 13.0 0.00 0.00 0.00 76 1018.6
20260510115403 50 39 6.0 12.0 0.00 0.00 0.00 75 1018.7
20260510114503 50 72 7.0 15.0 0.00 0.00 0.00 75 1018.7
20260510113817 50 85 9.0 14.0 0.00 0.00 0.00 76 1018.8
20260510112703 50 49 9.0 18.0 0.00 0.00 0.00 77 1018.8
20260510111803 50 72 10.0 18.0 0.00 0.00 0.00 76 1018.9
20260510110903 50 67 7.0 12.0 0.00 0.00 0.00 78 1019.0
20260510110218 49 50 8.0 15.0 0.00 0.00 0.00 78 1019.0
20260510105403 49 54 4.0 9.0 0.00 0.00 0.00 79 1019.2
20260510104503 48 48 7.0 11.0 0.00 0.00 0.00 80 1019.3
20260510103603 48 59 8.0 15.0 0.00 0.00 0.00 80 1019.3
20260510102703 48 43 8.0 14.0 0.00 0.00 0.00 81 1019.4
20260510102017 48 25 9.0 14.0 0.00 0.00 0.00 81 1019.5
20260510100903 48 68 4.0 9.0 0.00 0.00 0.00 81 1019.5
20260510100218 48 48 8.0 12.0 0.00 0.00 0.00 82 1019.6
20260510095403 48 58 9.0 14.0 0.00 0.00 0.00 82 1019.4
20260510094503 48 58 8.0 13.0 0.00 0.00 0.00 82 1019.5
20260510093818 48 29 9.0 14.0 0.00 0.00 0.00 82 1019.4
20260510092703 48 50 7.0 15.0 0.00 0.00 0.00 83 1019.5
20260510091803 48 51 7.0 12.0 0.00 0.00 0.00 83 1019.5
20260510091118 48 47 8.0 15.0 0.00 0.00 0.00 83 1019.7
20260510090003 47 54 8.0 15.0 0.00 0.00 0.00 84 1019.7
20260510085403 46 58 8.0 13.0 0.00 0.00 0.00 85 1019.7
20260510084503 46 47 9.0 17.0 0.00 0.00 0.00 85 1019.8
20260510083603 46 56 7.0 14.0 0.00 0.00 0.00 86 1019.8
20260510082704 46 47 10.0 15.0 0.00 0.00 0.00 86 1019.9
20260510081803 46 31 8.0 13.0 0.00 0.00 0.00 86 1019.8
20260510080904 46 52 8.0 13.0 0.00 0.00 0.00 86 1019.9
20260510080003 46 44 7.0 12.0 0.00 0.00 0.00 86 1019.8
20260510075403 46 38 4.0 6.0 0.00 0.00 0.00 86 1019.9
20260510074503 46 54 8.0 15.0 0.00 0.00 0.00 86 1019.8
20260510073603 46 78 7.0 11.0 0.00 0.00 0.00 86 1019.8
20260510072704 46 56 4.0 7.0 0.00 0.00 0.00 87 1019.8
20260510071803 46 45 10.0 15.0 0.00 0.00 0.00 87 1019.7
20260510070903 46 54 9.0 14.0 0.00 0.00 0.00 87 1019.7
20260510070216 46 44 9.0 14.0 0.00 0.00 0.00 88 1019.7
20260510065403 46 47 8.0 13.0 0.00 0.00 0.00 88 1019.6
20260510064503 46 38 7.0 12.0 0.00 0.00 0.00 88 1019.7
20260510063603 46 29 8.0 17.0 0.00 0.00 0.00 88 1019.6
20260510062703 46 20 9.0 17.0 0.00 0.00 0.00 88 1019.6
20260510062018 46 29 9.0 15.0 0.00 0.00 0.00 88 1019.4
20260510061117 46 38 9.0 14.0 0.00 0.00 0.00 88 1019.4
20260510060003 46 55 7.0 14.0 0.00 0.00 0.00 88 1019.4
20260510055403 46 48 8.0 14.0 0.00 0.00 0.00 88 1019.4
20260510054503 46 43 9.0 15.0 0.00 0.00 0.00 88 1019.3
20260510053603 46 46 9.0 15.0 0.00 0.01 0.00 87 1019.3
20260510052703 47 50 8.0 14.0 0.00 0.01 0.00 87 1019.2
20260510052017 47 52 8.0 11.0 0.00 0.01 0.00 87 1019.2
20260510050903 47 48 4.0 3.0 0.00 0.01 0.00 87 1019.4
20260510050218 47 49 8.0 14.0 0.00 0.01 0.00 87 1019.3
20260510045403 47 51 8.0 14.0 0.00 0.01 0.00 87 1019.4
20260510044503 47 32 7.0 12.0 0.00 0.01 0.00 87 1019.5
20260510043603 47 47 8.0 15.0 0.00 0.01 0.00 87 1019.4
20260510042703 47 35 9.0 14.0 0.00 0.01 0.00 87 1019.5
20260510041803 47 40 8.0 14.0 0.00 0.01 0.00 87 1019.5
20260510040903 47 49 9.0 14.0 0.00 0.01 0.00 87 1019.6
20260510040003 47 36 8.0 12.0 0.00 0.01 0.00 87 1019.7
20260510035403 47 49 9.0 15.0 0.00 0.01 0.00 86 1019.7
20260510034503 47 58 9.0 15.0 0.00 0.01 0.00 86 1019.6
20260510033603 47 48 9.0 13.0 0.00 0.01 0.00 86 1019.7
20260510032703 47 58 8.0 12.0 0.00 0.01 0.00 86 1019.7
20260510032018 47 54 7.0 12.0 0.00 0.01 0.00 86 1019.7
20260510030903 48 45 9.0 14.0 0.00 0.01 0.00 86 1019.8
20260510030003 48 43 6.0 13.0 0.00 0.01 0.00 86 1019.8
20260510025403 48 64 6.0 10.0 0.00 0.01 0.00 87 1019.8
20260510024503 48 41 8.0 14.0 0.00 0.01 0.00 87 1019.8
20260510023603 48 51 7.0 13.0 0.00 0.01 0.00 87 1019.8
20260510022917 48 40 8.0 13.0 0.00 0.01 0.00 87 1019.8
20260510021803 48 41 7.0 11.0 0.00 0.01 0.00 86 1019.8
20260510020903 48 60 4.0 9.0 0.00 0.01 0.00 86 1019.8
20260510020003 48 61 5.0 6.0 0.00 0.01 0.00 86 1019.7
20260510015403 48 52 9.0 14.0 0.00 0.01 0.00 86 1019.7
20260510014717 48 42 9.0 14.0 0.00 0.01 0.00 86 1019.7
20260510013603 48 61 9.0 16.0 0.00 0.01 0.00 86 1019.8
20260510012703 48 78 10.0 16.0 0.00 0.01 0.00 85 1019.8
20260510011803 48 74 9.0 16.0 0.00 0.01 0.00 85 1019.9
20260510010903 48 67 9.0 17.0 0.00 0.01 0.00 85 1019.9
20260510010003 48 52 8.0 14.0 0.00 0.01 0.00 85 1020.0
20260510005403 48 54 9.0 14.0 0.00 0.01 0.00 85 1020.0
20260510004503 48 40 10.0 16.0 0.00 0.01 0.00 85 1019.9
20260510003603 48 41 10.0 15.0 0.00 0.01 0.00 84 1019.8
20260510002703 49 60 8.0 15.0 0.00 0.01 0.00 84 1019.8
20260510001803 49 56 9.0 17.0 0.00 0.01 0.00 84 1019.7
20260510000903 49 62 10.0 17.0 0.00 0.01 0.00 84 1019.6
20260510000004 49 44 10.0 16.0 0.00 0.01 0.00 84 1019.6
20260509235403 49 50 11.0 16.0 0.00 0.01 0.00 84 1019.8
20260509234503 49 41 10.0 17.0 0.00 0.01 0.00 84 1019.9
20260509233818 50 41 6.0 10.0 0.00 0.01 0.00 84 1019.7
20260509232703 50 39 10.0 15.0 0.00 0.01 0.00 84 1019.6
20260509231803 50 33 10.0 14.0 0.00 0.01 0.00 84 1019.7
20260509230903 50 45 10.0 17.0 0.00 0.01 0.00 84 1019.8
20260509230004 50 54 8.0 15.0 0.00 0.01 0.00 84 1019.6
20260509225403 51 43 10.0 15.0 0.00 0.01 0.01 83 1019.6
20260509224503 51 44 9.0 15.0 0.00 0.01 0.01 83 1019.6
20260509223603 51 31 9.0 12.0 0.00 0.01 0.01 83 1019.5
20260509222703 52 39 8.0 12.0 0.00 0.01 0.01 83 1019.5
20260509221803 52 36 8.0 12.0 0.00 0.01 0.01 83 1019.4
20260509220903 52 38 8.0 12.0 0.00 0.01 0.01 83 1019.5
20260509220003 52 33 4.0 9.0 0.00 0.01 0.01 83 1019.6
20260509215403 53 30 7.0 13.0 0.00 0.01 0.01 82 1019.6
20260509214503 53 4 8.0 14.0 0.00 0.01 0.01 82 1019.4
20260509213603 53 22 7.0 11.0 0.00 0.01 0.01 82 1019.4
20260509212703 53 22 8.0 13.0 0.00 0.01 0.01 82 1019.3
20260509211803 54 34 8.0 12.0 0.00 0.01 0.01 81 1019.2
20260509210903 54 34 7.0 13.0 0.00 0.01 0.01 81 1019.0
20260509210003 54 17 8.0 15.0 0.00 0.02 0.01 81 1018.9
20260509205403 55 28 7.0 10.0 0.00 0.02 0.01 82 1018.9
20260509204718 55 40 7.0 11.0 0.00 0.03 0.01 82 1018.9
20260509203603 55 9 5.0 11.0 0.00 0.10 0.01 82 1018.8
20260509202916 55 7 5.0 8.0 0.00 0.13 0.01 82 1018.8
20260509202018 55 1 7.0 11.0 0.00 0.13 0.01 82 1018.8
20260509201117 55 359 9.0 14.0 0.00 0.13 0.01 81 1018.6
20260509200004 56 348 8.0 12.0 0.00 0.18 0.01 81 1018.5
20260509195403 56 349 8.0 12.0 0.00 0.19 0.01 80 1018.6
20260509194503 56 352 8.0 13.0 0.00 0.19 0.01 80 1018.4
20260509193603 56 338 9.0 14.0 0.00 0.19 0.01 79 1018.2
20260509192703 57 345 9.0 14.0 0.00 0.19 0.01 78 1018.1
20260509192018 58 347 9.0 15.0 0.00 0.19 0.01 77 1018.1
20260509190903 58 356 9.0 15.0 0.00 0.19 0.01 76 1018.1
20260509190003 59 345 9.0 13.0 0.00 0.19 0.01 75 1018.0
20260509185403 60 337 10.0 14.0 0.00 0.19 0.01 73 1018.0
20260509184503 61 340 7.0 12.0 0.00 0.19 0.01 71 1017.9
20260509183603 62 356 5.0 12.0 0.00 0.19 0.01 64 1017.7
20260509182703 63 37 3.0 6.0 0.00 0.19 0.01 51 1017.6
20260509181803 63 42 2.0 4.0 0.00 0.19 0.01 51 1017.5
20260509180903 63 52 4.0 9.0 0.00 0.20 0.01 51 1017.6
20260509180003 63 45 5.0 10.0 0.00 0.26 0.01 50 1017.5
20260509175403 63 52 4.0 7.0 0.00 0.31 0.01 50 1017.4
20260509174503 64 64 5.0 7.0 0.00 0.31 0.01 50 1017.4
20260509173603 64 58 5.0 12.0 0.00 0.31 0.01 50 1017.4
20260509172703 64 48 7.0 12.0 0.00 0.31 0.01 49 1017.3
20260509171803 64 86 4.0 9.0 0.00 0.31 0.01 50 1017.4
20260509170903 64 45 5.0 9.0 0.00 0.31 0.01 50 1017.4
20260509170217 65 59 4.0 8.0 0.00 0.31 0.01 51 1017.5
20260509165617 64 38 6.0 12.0 0.00 0.31 0.01 50 1017.5
20260509164503 64 34 5.0 9.0 0.00 0.31 0.01 50 1017.5
20260509163817 64 50 3.0 6.0 0.00 0.31 0.01 50 1017.5
20260509162703 64 58 4.0 8.0 0.00 0.31 0.01 50 1017.5
20260509161803 64 36 5.0 8.0 0.00 0.31 0.01 51 1017.5
20260509160903 64 49 4.0 8.0 0.00 0.31 0.01 50 1017.6
20260509160217 64 62 4.0 7.0 0.00 0.31 0.01 51 1017.7
20260509155617 64 66 5.0 9.0 0.00 0.31 0.01 50 1017.7
20260509154718 64 47 5.0 7.0 0.00 0.31 0.01 49 1017.7
20260509153603 64 59 5.0 8.0 0.00 0.31 0.01 49 1017.7